Location: Unspecified
(0.0000°N, 0.0000°E)
Time: 13:00:57
(UTC+00:00)

USA 229 - Visible Passes

Search period start: 17 September 2024 00:00
Search period end: 27 September 2024 00:00
Orbit: 890 x 1322 km, 63.4° (Epoch: 31 August)

Date Brightness Start Highest point End Pass type
(mag) Time Alt. Az. Time Alt. Az. Time Alt. Az.
17 Sep 4.7 18:22:05 10° N 18:29:17 35° ENE 18:36:30 10° SE visible
17 Sep 5.4 20:12:53 10° NW 20:20:05 34° WSW 20:27:12 10° S visible
18 Sep 4.6 19:27:08 10° NW 19:35:09 59° WSW 19:43:07 10° S visible
19 Sep 4.1 18:42:03 10° NNW 18:50:15 82° ENE 18:58:24 10° SSE visible
19 Sep 6.6 20:38:06 10° W 20:41:08 12° WSW 20:44:10 10° SW visible
20 Sep 6.1 19:49:51 10° WNW 19:56:08 24° WSW 20:02:22 10° SSW visible
21 Sep 5.3 19:03:35 10° NW 19:11:11 43° WSW 19:18:46 10° S visible
22 Sep 6.3 04:55:42 10° SE 04:58:01 12° ESE 05:00:19 10° E visible
22 Sep 4.5 18:18:07 10° NNW 18:26:17 74° WSW 18:34:23 10° SSE visible
23 Sep 6.6 19:27:23 10° WNW 19:32:13 17° WSW 19:37:01 10° SSW visible
24 Sep 4.8 05:13:25 10° S 05:18:55 40° ESE 05:24:25 10° NE visible
24 Sep 6.0 18:40:17 10° NW 18:47:14 31° WSW 18:54:08 10° S visible
25 Sep 5.9 04:29:54 10° SSE 04:34:03 20° ESE 04:38:11 10° ENE visible
26 Sep 7.0 19:06:34 10° WSW 19:08:19 11° WSW 19:10:03 10° SW visible
